Home > Weather > Sumqayit > Past weeks

Flag for Azerbaijan Weather for the Past 2 Weeks in Sumqayit, Azerbaijan

Now
55 °F

Clear.


Feels Like: 53 °F
Forecast: 54 / 65 °F
Wind: 10 mph from Northwest

Location: Baku / Bine Airport

Current Time: Apr 29, 2016 at 4:58:25 AM

Latest Report: Apr 29, 2016 at 4:00 AM


Visibility: 10 mi

Pressure: 30.01 "Hg

Humidity: 88%

Dew Point: 52 °F

Location of SumqayitLocation

Historic Weather in Sumqayit — Graph

°F

Sumqayit Temperature Yesterday

Maximum temperature yesterday: 66 °F (at 10:00 AM)
Minimum temperature yesterday: 54 °F (at 3:30 AM)
Average temperature yesterday: 59 °F

High & Low Weather Summary for the Past Weeks

 TemperatureHumidityPressure
High81 °F (Apr 20, 12:30 PM)100% (Apr 15, 6:00 AM)30.36 "Hg (Apr 15, 6:00 AM)
Low43 °F (Apr 23, 12:00 AM)28% (Apr 19, 3:00 PM)29.59 "Hg (Apr 26, 3:00 AM)
Average60 °F71%29.93 "Hg
* Reported Apr 14 3:00 AM — Apr 29 3:00 AM, Sumqayit, Weather by CustomWeather, © 2016

Note: Actual official high and low records may vary slightly from our data, if they occured in-between our weather recording intervals... More about our weather records

Advertising

Sumqayit Weather History for the Previous 24 Hours

Scroll right to see more
 ConditionsComfort  
Time TempWeatherWind HumidityBarometerVisibility
3:00 AM
Fri, Apr 29
57 °FClear.13 mph82%29.98 "Hg10 mi
2:30 AM57 °FClear.15 mph82%29.98 "Hg10 mi
2:00 AM55 °FClear.14 mph88%30.01 "Hg10 mi
1:30 AM55 °FClear.16 mph88%30.01 "Hg10 mi
1:00 AM55 °FClear.16 mph88%30.01 "Hg10 mi
12:30 AM55 °FClear.16 mph88%30.01 "Hg10 mi
12:00 AM55 °FClear.16 mph88%30.01 "Hg10 mi
11:30 PM
Thu, Apr 28
55 °FClear.16 mph88%30.01 "Hg10 mi
11:00 PM55 °FClear.18 mph88%30.04 "Hg10 mi
10:30 PM55 °FClear.15 mph88%30.04 "Hg10 mi
10:00 PM55 °FPassing clouds.17 mph88%30.04 "HgN/A
9:30 PM55 °FOvercast.18 mph88%30.01 "HgN/A
9:00 PM54 °FMostly cloudy.17 mph94%30.04 "HgN/A
8:30 PM54 °FMostly cloudy.18 mph94%30.04 "HgN/A
8:00 PM54 °FSprinkles. Mostly cloudy.17 mph94%30.01 "HgN/A
7:30 PM55 °FSprinkles. More clouds than sun.16 mph94%30.01 "HgN/A
7:00 PM55 °FSprinkles. More clouds than sun.20 mph94%30.01 "Hg5 mi
6:30 PM55 °FSprinkles. More clouds than sun.24 mph88%30.04 "Hg5 mi
6:00 PM57 °FSprinkles. Overcast.23 mph77%30.01 "HgN/A
5:00 PM59 °FSunny.22 mph72%29.98 "Hg10 mi
4:30 PM59 °FSunny.30 mph72%29.98 "Hg10 mi
4:00 PM59 °FSunny.30 mph72%29.98 "Hg10 mi
3:30 PM63 °FSunny.30 mph64%29.98 "Hg10 mi
3:00 PM64 °FSunny.30 mph64%29.95 "Hg10 mi
2:30 PM63 °FSunny.30 mph68%29.95 "Hg10 mi
2:00 PM66 °FSunny.30 mph60%29.95 "Hg10 mi
1:30 PM64 °FSunny.30 mph64%29.95 "Hg10 mi
1:00 PM64 °FSunny.30 mph68%29.95 "Hg10 mi
12:30 PM64 °FSunny.25 mph68%29.95 "Hg10 mi
12:00 PM66 °FSunny.22 mph68%29.98 "Hg10 mi
11:30 AM64 °FSunny.23 mph73%29.95 "Hg10 mi
10:00 AM66 °FSunny.24 mph64%29.89 "Hg10 mi
9:00 AM63 °FSunny.16 mph73%29.92 "Hg10 mi
8:30 AM61 °FSunny.16 mph77%29.92 "Hg10 mi
7:30 AM59 °FSunny.12 mph82%29.92 "Hg10 mi
7:00 AM59 °FSunny.10 mph82%29.89 "Hg10 mi
6:00 AM55 °FSunny.9 mph88%29.89 "Hg10 mi
4:00 AM55 °FClear.7 mph88%29.86 "Hg10 mi
Weather by CustomWeather, © 2016

See weather overviewHow to use our weather pages